{"data":{"norad_id":66936,"intl_designator":"2025-286M","name":"STARLINK-36160","alt_names":[],"object_type":"PAYLOAD","status":"ACTIVE","operator":null,"country":"US","launch_date":"2025-12-07","launch_site_code":"AFWTR","launch_vehicle":null,"mission":null,"orbit_class":"UNKNOWN","rcs_meters":null,"size_class":null,"mass_kg":null,"dimensions":null,"purposes":["comms"],"wikipedia_slug":null,"has_3d_model":false,"image_url":null,"decayed_at":null,"tle_current":{"epoch":"2026-09-20T11:06:18.233856Z","epoch_age_seconds":87290,"freshness":"FRESH","line1":"1 66936U 25286M   26263.46271104  .00018670  00000+0  56235-3 0  9992","line2":"2 66936  53.1590 169.7619 0001288  78.7436 281.3711 15.34397600 45288","mean_motion":15.343976,"eccentricity":0.0001288,"inclination_deg":53.159,"raan_deg":169.7619,"arg_perigee_deg":78.7436,"mean_anomaly_deg":281.3711,"bstar":0.00056235,"rev_number":4528,"period_min":93.847904871593,"perigee_km":461.82927238047,"apogee_km":463.59147466389,"semimajor_km":6840.8473735222,"source":"CELESTRAK","updated_at":"2026-09-21T09:00:36.057952Z"}}}